Weather reports worldwide

Advertisment
Kielder Castle, United Kingdom (99186): temperature & dewpoint: 22.02.2017 14:00:00 - 28.02.2017 14:00:00 (GMT)Kielder Castle, United Kingdom (99186): temperature -20cm & temperature -100cm: 22.02.2017 14:00:00 - 28.02.2017 14:00:00 (GMT)Kielder Castle, United Kingdom (99186): precipitation: 22.02.2017 14:00:00 - 28.02.2017 14:00:00 (GMT)
Date & Time tt [°C] td [°C] tt -20cm [°C] tt -100cm [°C] rr [mm]
28.02.2017 14:00:00 5,0 1,7 - - 0,0
28.02.2017 13:00:00 4,2 1,0 - - 0,0
28.02.2017 12:00:00 2,5 0,8 - - 0,0
28.02.2017 11:00:00 1,7 0,6 - - 0,0
28.02.2017 10:00:00 0,9 0,4 - - 0,2
28.02.2017 09:00:00 0,2 0,0 5,0 5,5 0,0
28.02.2017 08:00:00 -1,7 -1,9 - - 0,0
28.02.2017 07:00:00 -1,9 -2,2 - - 0,0
28.02.2017 06:00:00 -1,7 -2,1 - - 0,0
28.02.2017 05:00:00 -1,4 -1,7 - - 0,0
28.02.2017 04:00:00 -1,1 -1,6 - - 0,0
28.02.2017 03:00:00 -0,3 -0,7 - - 0,0
28.02.2017 02:00:00 0,2 -0,3 - - 0,0
28.02.2017 01:00:00 0,4 0,0 - - 0,0
28.02.2017 00:00:00 0,4 0,0 - - 0,0
27.02.2017 23:00:00 0,6 0,1 - - 0,0
27.02.2017 22:00:00 0,5 0,0 - - 0,2
27.02.2017 21:00:00 0,5 0,0 - - 0,0
27.02.2017 20:00:00 0,7 0,2 - - 0,2
27.02.2017 19:00:00 1,0 0,4 - - 0,0
27.02.2017 18:00:00 1,3 0,8 - - 0,0
27.02.2017 17:00:00 1,4 0,6 - - 1,0
27.02.2017 16:00:00 3,0 2,1 - - 0,4
27.02.2017 15:00:00 2,6 1,3 - - 1,6
27.02.2017 14:00:00 4,9 1,4 - - 0,0
27.02.2017 13:00:00 4,9 1,7 - - 0,0
27.02.2017 12:00:00 4,7 2,0 - - 0,0
27.02.2017 11:00:00 4,4 3,0 - - 0,0
27.02.2017 10:00:00 3,1 2,6 - - 0,2
27.02.2017 09:00:00 1,3 1,1 5,5 5,5 0,4
27.02.2017 08:00:00 1,0 0,8 - - 0,0
27.02.2017 07:00:00 1,4 1,0 - - 1,4
27.02.2017 06:00:00 1,4 1,2 - - 1,8
27.02.2017 05:00:00 1,5 0,9 - - 0,0
27.02.2017 04:00:00 2,2 1,7 - - 0,0
27.02.2017 03:00:00 1,9 1,2 - - 2,8
27.02.2017 02:00:00 3,2 1,9 - - 0,6
27.02.2017 01:00:00 3,4 1,7 - - 0,0
27.02.2017 00:00:00 3,6 1,2 - - 0,0
26.02.2017 23:00:00 4,4 2,4 - - 0,0
26.02.2017 22:00:00 4,7 2,7 - - 0,0
26.02.2017 21:00:00 5,0 3,3 - - 0,0
26.02.2017 20:00:00 5,2 3,2 - - 0,2
26.02.2017 19:00:00 6,3 4,6 - - 0,0
26.02.2017 18:00:00 7,0 5,4 - - 0,0
26.02.2017 17:00:00 7,4 6,2 - - 1,0
26.02.2017 16:00:00 7,4 6,8 - - 8,6
26.02.2017 15:00:00 7,4 6,5 - - 5,6
26.02.2017 14:00:00 7,3 6,4 - - 4,6
26.02.2017 13:00:00 7,3 6,2 - - 2,4
26.02.2017 12:00:00 7,6 6,7 - - 2,2
26.02.2017 11:00:00 7,5 6,4 - - 0,6
26.02.2017 10:00:00 7,4 5,6 - - 0,2
26.02.2017 09:00:00 6,0 3,9 5,5 5,7 0,0
26.02.2017 08:00:00 5,9 3,3 - - 0,0
26.02.2017 07:00:00 5,3 3,7 - - 0,0
26.02.2017 06:00:00 5,1 3,6 - - 0,0
26.02.2017 05:00:00 5,3 4,0 - - 0,0
26.02.2017 04:00:00 5,0 4,2 - - 0,0
26.02.2017 03:00:00 4,5 4,2 - - 0,0
26.02.2017 02:00:00 3,7 3,6 - - 0,2
26.02.2017 01:00:00 3,5 3,3 - - 0,0
26.02.2017 00:00:00 3,6 3,4 - - 0,0
25.02.2017 23:00:00 3,8 3,4 - - 0,0
25.02.2017 22:00:00 4,8 4,3 - - 0,0
25.02.2017 21:00:00 5,8 5,3 - - 0,0
25.02.2017 20:00:00 6,6 5,8 - - 0,0
25.02.2017 19:00:00 7,5 7,0 - - 0,0
25.02.2017 18:00:00 7,9 7,4 - - 0,4
25.02.2017 17:00:00 8,5 7,9 - - 0,4
25.02.2017 16:00:00 8,8 8,2 - - 0,6
25.02.2017 15:00:00 8,6 8,1 - - 0,6
25.02.2017 14:00:00 8,5 7,9 - - 0,6
25.02.2017 13:00:00 8,4 7,8 - - 1,0
25.02.2017 12:00:00 8,1 7,6 - - 3,4
25.02.2017 11:00:00 7,8 7,2 - - 4,0
25.02.2017 10:00:00 7,4 6,7 - - 4,0
25.02.2017 09:00:00 7,1 6,3 5,0 5,7 2,6
25.02.2017 08:00:00 6,9 6,0 - - 4,8
25.02.2017 07:00:00 6,9 6,0 - - 1,6
25.02.2017 06:00:00 6,9 5,7 - - 0,0
25.02.2017 05:00:00 6,6 5,9 - - 0,6
25.02.2017 04:00:00 6,7 5,9 - - 0,2
25.02.2017 03:00:00 6,4 5,7 - - 0,8
25.02.2017 02:00:00 5,7 5,0 - - 1,4
25.02.2017 01:00:00 5,0 4,2 - - 0,4
25.02.2017 00:00:00 4,2 3,3 - - 0,2
24.02.2017 23:00:00 3,7 3,0 - - 0,2
24.02.2017 22:00:00 2,9 2,2 - - 0,2
24.02.2017 21:00:00 2,5 1,5 - - 0,2
24.02.2017 20:00:00 2,7 1,7 - - 0,2
24.02.2017 19:00:00 2,8 1,6 - - 0,4
24.02.2017 18:00:00 3,8 1,2 - - 0,0
24.02.2017 17:00:00 4,3 1,3 - - 0,0
24.02.2017 16:00:00 4,8 1,9 - - 0,0
24.02.2017 15:00:00 5,2 1,7 - - 0,0
24.02.2017 14:00:00 5,6 1,5 - - 0,0
24.02.2017 13:00:00 6,1 1,6 - - 0,0
24.02.2017 12:00:00 5,3 1,0 - - 0,0
24.02.2017 11:00:00 3,4 0,3 - - 0,0
24.02.2017 10:00:00 2,9 0,8 - - 0,0
24.02.2017 09:00:00 0,1 -0,2 5,0 5,7 0,0
24.02.2017 08:00:00 -1,0 -1,4 - - 0,0
24.02.2017 07:00:00 -0,6 -1,0 - - 0,0
24.02.2017 06:00:00 0,3 0,0 - - 0,0
24.02.2017 05:00:00 0,2 -0,2 - - 0,0
24.02.2017 04:00:00 0,2 -0,4 - - 0,0
24.02.2017 03:00:00 1,7 0,4 - - 0,0
24.02.2017 02:00:00 1,9 0,7 - - 0,0
24.02.2017 01:00:00 1,6 1,0 - - 0,0
24.02.2017 00:00:00 1,2 1,0 - - 0,0
23.02.2017 23:00:00 0,5 0,3 - - 0,0
23.02.2017 22:00:00 0,1 -0,2 - - 0,2
23.02.2017 21:00:00 0,2 -0,4 - - 0,0
23.02.2017 20:00:00 1,3 0,6 - - 0,0
23.02.2017 19:00:00 1,4 0,7 - - 0,0
23.02.2017 18:00:00 1,8 1,1 - - 0,0
23.02.2017 17:00:00 1,6 0,9 - - 0,4
23.02.2017 16:00:00 1,3 0,8 - - 1,8
23.02.2017 15:00:00 1,1 0,4 - - 2,0
23.02.2017 14:00:00 1,3 0,4 - - 2,0
23.02.2017 13:00:00 1,7 0,7 - - 1,6
23.02.2017 12:00:00 2,3 1,2 - - 0,4
23.02.2017 11:00:00 3,5 2,3 - - 0,8
23.02.2017 10:00:00 4,6 4,3 - - 0,2
23.02.2017 09:00:00 3,6 3,3 5,7 5,7 1,4
23.02.2017 08:00:00 3,0 2,6 - - 4,8
23.02.2017 07:00:00 3,0 2,6 - - 5,8
23.02.2017 06:00:00 2,6 2,1 - - 1,8
23.02.2017 05:00:00 2,3 1,8 - - 3,0
23.02.2017 04:00:00 1,7 1,2 - - 2,0
23.02.2017 03:00:00 1,1 0,5 - - 2,4
23.02.2017 02:00:00 2,2 1,3 - - 3,4
23.02.2017 01:00:00 3,3 2,9 - - 2,0
23.02.2017 00:00:00 3,2 2,3 - - 0,2
22.02.2017 23:00:00 3,4 2,3 - - 0,0
22.02.2017 22:00:00 2,9 1,8 - - 0,0
22.02.2017 21:00:00 3,8 1,8 - - 0,0
22.02.2017 20:00:00 4,5 1,8 - - 0,0
22.02.2017 19:00:00 4,6 2,1 - - 0,0
22.02.2017 18:00:00 4,7 1,8 - - 0,0
22.02.2017 17:00:00 5,8 2,1 - - 0,0
22.02.2017 16:00:00 6,2 2,2 - - 0,0
22.02.2017 15:00:00 6,3 2,4 - - 0,0
22.02.2017 14:00:00 6,1 2,7 - - 0,0

tt = temperature
td = dewpoint
tt -20cm = temperature -20cm
tt -100cm = temperature -100cm
rr = precipitation

Next stations